[[{"header":{"parameterUnit":"m.s-1","parameterCategory":1,"la1":30.2991,"la2":30.254,"lo1":-89.0895,"lo2":-89.0444,"dy":0.0017,"dx":0.0017,"nx":28,"ny":28,"refTime":"2024-03-02T03:00:00:Z","depth":0,"parameterNumber":2,"parameterNumberName":"U-component_of_WINDS"},"data":[0,0,0,0,0,0,0,0,0,0,0,0,0,0,0,0,0,0,0,0,0,0,0,0,0,0,0,0,0,0,0,0,0,0,0,0,0,0,0,0,0,0,0,0,0,0,0,0,0,0,0,0,0,0,0,0,0,0,-1.8295,-1.8295,0,-1.8286,-1.8286,-1.8285,-1.8227,-1.8226,-1.8224,-1.8223,-1.8215,-1.8216,-1.8217,0,0,0,0,0,0,0,0,0,0,0,0,0,-1.8263,-1.8264,-1.8295,-1.8294,-1.8294,-1.8286,-1.8286,-1.8285,-1.8227,-1.8226,-1.8224,-1.8222,-1.8215,-1.8216,-1.8217,0,0,0,0,0,0,0,0,0,0,0,0,0,-1.8268,-1.8264,-1.8295,-1.8264,-1.8262,-1.8286,-1.8286,-1.8285,-1.8228,-1.8226,-1.8224,-1.8222,-1.8214,-1.8216,-1.8217,-1.827,0,0,-1.8222,-1.8223,0,0,0,0,0,0,0,0,-1.8268,-1.8269,-1.8269,-1.8267,-1.8263,-1.8255,-1.8271,-1.828,-1.8228,-1.8241,-1.8223,-1.8221,-1.823,-1.823,-1.8233,-1.827,-1.8269,-1.8223,-1.8224,-1.8224,-1.8225,0,0,0,0,0,0,0,-1.8267,-1.8269,-1.8291,-1.8269,-1.8266,-1.8252,-1.825,-1.8273,-1.8248,-1.8239,-1.8235,-1.8235,-1.8228,-1.8232,-1.8233,-1.8269,-1.8223,-1.8224,-1.8225,-1.8226,-1.835,-1.8353,0,0,0,0,0,0,-1.8271,-1.8269,-1.8291,-1.8291,-1.826,-1.8254,-1.8252,-1.826,-1.8247,-1.8243,-1.8237,-1.8232,-1.823,-1.8231,-1.8232,-1.8294,-1.8224,-1.8226,-1.8227,-1.8348,-1.8351,-1.8353,0,0,0,0,0,0,-1.8271,-1.8274,-1.8292,-1.8279,-1.828,-1.8257,-1.8266,-1.8261,-1.8265,-1.8245,-1.824,-1.8245,-1.8228,-1.823,-1.8261,-1.8293,-1.8227,-1.8228,-1.8345,-1.8349,-1.8352,-1.8419,0,0,0,0,0,0,-1.827,-1.8274,-1.8293,-1.828,-1.8281,-1.8321,-1.8268,-1.8262,-1.8268,-1.8262,-1.8252,-1.8248,-1.8227,-1.8259,-1.8263,-1.8294,-1.8229,-1.8342,-1.8347,-1.8351,-1.8413,-1.8424,-1.8433,0,0,0,0,0,-1.8269,-1.8312,-1.8294,-1.8297,-1.8305,-1.8323,-1.8323,-1.8298,-1.827,-1.829,-1.8278,-1.8248,-1.8289,-1.8263,-1.8267,-1.8299,-1.834,-1.8346,-1.8351,-1.8409,-1.8422,-1.8433,0,0,0,0,0,0,-1.8329,-1.831,-1.829,-1.833,-1.8328,-1.8313,-1.8337,-1.8312,-1.8319,-1.8313,-1.8282,-1.828,-1.8317,-1.8311,-1.8282,-1.835,-1.831,-1.8316,-1.8353,-1.8365,-1.8374,-1.8375,-1.8231,0,0,0,0,0,-1.8347,-1.8363,-1.8345,-1.8382,-1.8382,-1.836,-1.8367,-1.8348,-1.8345,-1.8344,-1.8334,-1.8333,-1.8346,-1.8355,-1.8365,-1.8412,-1.841,-1.8436,-1.8446,-1.8454,-1.846,-1.8486,-1.8498,-1.8371,-1.8371,-1.837,0,0,-1.8385,-1.8376,-1.8388,-1.8394,-1.8391,-1.8409,-1.836,-1.838,-1.8394,-1.8347,-1.8377,-1.837,-1.8367,-1.8407,-1.8424,-1.8403,-1.8495,-1.8461,-1.8467,-1.8469,-1.8493,-1.8505,-1.8516,-1.8374,-1.8374,-1.8373,0,0,-1.8462,-1.8456,-1.8487,-1.8485,-1.8481,-1.8466,-1.8473,-1.8462,-1.8455,-1.8484,-1.8451,-1.8466,-1.8488,-1.8488,-1.8491,-1.857,-1.8544,-1.8574,-1.8625,-1.8651,-1.8661,-1.867,-1.8699,-1.871,-1.858,-1.858,-1.858,0,-1.8508,-1.8534,-1.8506,-1.8529,-1.8534,-1.8493,-1.8525,-1.8524,-1.8524,-1.8528,-1.8505,-1.8533,-1.8528,-1.8568,-1.8587,-1.8591,-1.8599,-1.8575,-1.8662,-1.867,-1.8678,-1.8706,-1.8717,-1.8584,-1.8584,-1.8583,-1.8583,0,-1.8592,-1.861,-1.8636,-1.8637,-1.8644,-1.8672,-1.8649,-1.866,-1.864,-1.8628,-1.8659,-1.8652,-1.8661,-1.8669,-1.865,-1.8707,-1.8695,-1.8667,-1.8626,-1.8694,-1.872,-1.873,-1.859,-1.8588,-1.8587,-1.8586,0,0,-1.8706,-1.8693,-1.8702,-1.8703,-1.8696,-1.871,-1.8737,-1.8745,-1.8756,-1.8758,-1.878,-1.88,-1.8775,-1.8778,-1.8759,-1.8782,-1.8847,-1.8751,-1.8751,-1.877,-1.8911,-1.8932,-1.8945,-1.8829,-1.8831,-1.8832,-1.8911,0,-1.8781,-1.8824,-1.8801,-1.8848,-1.8866,-1.8828,-1.8851,-1.885,-1.884,-1.8854,-1.8842,-1.8858,-1.8823,-1.8825,-1.8845,-1.8834,-1.8875,-1.8828,-1.885,-1.8851,-1.8853,-1.8958,-1.898,-1.9055,-1.8921,-1.8923,-1.8924,0,-1.8874,-1.888,-1.8929,-1.8921,-1.8927,-1.8948,-1.8955,-1.8969,-1.8967,-1.8958,-1.8963,-1.8939,-1.8965,-1.8924,-1.8961,-1.893,-1.8937,-1.8934,-1.8936,-1.8938,-1.8892,-1.8963,-1.9078,-1.909,-1.8939,-1.8938,-1.8937,0,-1.8953,-1.8974,-1.9006,-1.9008,-1.8999,-1.9015,-1.9012,-1.9008,-1.9016,-1.9022,-1.9027,-1.9036,-1.9042,-1.905,-1.903,-1.9002,-1.907,-1.9027,-1.9064,-1.9065,-1.908,-1.908,-1.9199,-1.9084,-1.9084,-1.9084,-1.9084,0,-1.904,-1.9071,-1.9042,-1.9062,-1.9097,-1.9071,-1.9106,-1.9099,-1.9097,-1.9115,-1.9083,-1.9102,-1.9073,-1.9089,-1.9074,-1.9107,-1.911,-1.9104,-1.91,-1.9107,-1.9108,-1.9112,-1.9107,-1.9087,-1.9086,-1.9086,-1.9085,0,-1.9134,-1.9116,-1.9149,-1.9138,-1.9136,-1.9163,-1.9153,-1.9172,-1.916,-1.9184,-1.9189,-1.917,-1.9187,-1.9168,-1.9183,-1.9173,-1.9219,-1.9206,-1.9219,-1.9216,-1.9255,-1.9252,-1.9381,-1.9398,-1.9272,-1.9273,-1.9274,0,-1.9191,-1.9215,-1.9207,-1.9217,-1.9216,-1.9233,-1.9241,-1.9216,-1.9225,-1.9227,-1.9246,-1.926,-1.927,-1.93,-1.9288,-1.9301,-1.9289,-1.9333,-1.929,-1.9298,-1.9291,-1.929,-1.9293,-1.9342,-1.9344,-1.9345,-1.9346,0,-1.9294,-1.9284,-1.9296,-1.9306,-1.9316,-1.9323,-1.9327,-1.9337,-1.9312,-1.9324,-1.9342,-1.935,-1.9367,-1.9382,-1.9391,-1.9389,-1.9364,-1.936,-1.9369,-1.9378,-1.9385,-1.9383,-1.9244,-1.9357,-1.9356,-1.9355,-1.9354,-1.9354,-1.9371,-1.9392,-1.939,-1.9405,-1.9406,-1.9411,-1.9428,-1.9419,-1.9433,-1.9444,-1.9429,-1.9451,-1.9451,-1.9461,-1.9461,-1.9479,-1.946,-1.9473,-1.9477,-1.9481,-1.9487,-1.9382,-1.948,-1.948,-1.948,-1.9479,-1.9479,0,-1.9473,-1.9471,-1.9485,-1.9492,-1.9505,-1.948,-1.9484,-1.9497,-1.9516,-1.9518,-1.9529,-1.955,-1.9566,-1.9556,-1.9569,-1.9585,-1.9574,-1.959,-1.9589,-1.9589,-1.9503,-1.9494,-1.9598,-1.9598,-1.9598,-1.9598,-1.9598,-1.9598,-1.9528,-1.9561,-1.9551,-1.9585,-1.9582,-1.9604,-1.9608,-1.9613,-1.9615,-1.964,-1.9652,-1.9646,-1.9643,-1.9656,-1.967,-1.9667,-1.9674,-1.9693,-1.9686,-1.9606,-1.9595,-1.9583,-1.9575,-1.9695,-1.9695,-1.9771,-1.9771,-1.9772]},{"header":{"parameterUnit":"m.s-1","parameterCategory":1,"la1":30.2991,"la2":30.254,"lo1":-89.0895,"lo2":-89.0444,"dy":0.0017,"dx":0.0017,"nx":28,"ny":28,"refTime":"2024-03-02T03:00:00:Z","depth":0,"parameterNumber":3,"parameterNumberName":"V-component_of_WINDS"},"data":[0,0,0,0,0,0,0,0,0,0,0,0,0,0,0,0,0,0,0,0,0,0,0,0,0,0,0,0,0,0,0,0,0,0,0,0,0,0,0,0,0,0,0,0,0,0,0,0,0,0,0,0,0,0,0,0,0,0,-1.2359,-1.2359,0,-1.2353,-1.2353,-1.2353,-1.2344,-1.2344,-1.2344,-1.2344,-1.2337,-1.2337,-1.2337,0,0,0,0,0,0,0,0,0,0,0,0,0,-1.2363,-1.2363,-1.2359,-1.2359,-1.2359,-1.2353,-1.2353,-1.2353,-1.2344,-1.2344,-1.2344,-1.2344,-1.2337,-1.2337,-1.2337,0,0,0,0,0,0,0,0,0,0,0,0,0,-1.2359,-1.2363,-1.2359,-1.2354,-1.2354,-1.2353,-1.2353,-1.2353,-1.2344,-1.2344,-1.2344,-1.2344,-1.2337,-1.2337,-1.2337,-1.2341,0,0,-1.2337,-1.2337,0,0,0,0,0,0,0,0,-1.236,-1.2359,-1.2355,-1.2355,-1.2354,-1.2349,-1.2352,-1.2349,-1.2344,-1.2348,-1.2344,-1.2344,-1.2341,-1.2341,-1.234,-1.2341,-1.234,-1.2337,-1.2337,-1.2337,-1.2337,0,0,0,0,0,0,0,-1.236,-1.236,-1.2357,-1.2355,-1.2354,-1.2352,-1.2351,-1.2351,-1.2346,-1.2348,-1.2347,-1.2346,-1.2341,-1.234,-1.234,-1.234,-1.2337,-1.2337,-1.2337,-1.2337,-1.2343,-1.2343,0,0,0,0,0,0,-1.2361,-1.236,-1.2357,-1.2357,-1.2356,-1.2352,-1.2351,-1.2351,-1.2346,-1.2345,-1.2347,-1.2346,-1.234,-1.234,-1.234,-1.2344,-1.2337,-1.2337,-1.2337,-1.2343,-1.2343,-1.2343,0,0,0,0,0,0,-1.2361,-1.2361,-1.2357,-1.2358,-1.2357,-1.2352,-1.2352,-1.2351,-1.235,-1.2345,-1.2344,-1.2347,-1.234,-1.234,-1.2341,-1.2343,-1.2337,-1.2337,-1.2342,-1.2343,-1.2343,-1.2352,0,0,0,0,0,0,-1.2361,-1.2361,-1.2363,-1.2358,-1.2357,-1.2359,-1.2352,-1.2351,-1.235,-1.2349,-1.2345,-1.2344,-1.234,-1.2341,-1.2341,-1.2343,-1.2336,-1.2342,-1.2343,-1.2343,-1.2352,-1.2353,-1.2354,0,0,0,0,0,-1.2361,-1.2365,-1.2363,-1.2363,-1.2359,-1.2359,-1.2358,-1.2354,-1.2351,-1.2352,-1.2349,-1.2344,-1.2343,-1.2341,-1.2341,-1.2343,-1.2342,-1.2343,-1.2343,-1.2351,-1.2352,-1.2354,0,0,0,0,0,0,-1.237,-1.2365,-1.2362,-1.2365,-1.2362,-1.2357,-1.2359,-1.2355,-1.2354,-1.2353,-1.2347,-1.2346,-1.2348,-1.2346,-1.2343,-1.2346,-1.2342,-1.2342,-1.2348,-1.2349,-1.235,-1.2351,-1.2336,0,0,0,0,0,-1.2373,-1.2373,-1.2368,-1.2371,-1.237,-1.2365,-1.2364,-1.2361,-1.2358,-1.2357,-1.2354,-1.2351,-1.235,-1.2349,-1.2348,-1.2351,-1.235,-1.2353,-1.2354,-1.2354,-1.2355,-1.2356,-1.2357,-1.2345,-1.2345,-1.2345,0,0,-1.2378,-1.2375,-1.2375,-1.2373,-1.237,-1.237,-1.2364,-1.2364,-1.2364,-1.2357,-1.2358,-1.2355,-1.2352,-1.2353,-1.2354,-1.2351,-1.2358,-1.2355,-1.2356,-1.2356,-1.2356,-1.2358,-1.2359,-1.2345,-1.2345,-1.2345,0,0,-1.2387,-1.2384,-1.2386,-1.2384,-1.2381,-1.2377,-1.2378,-1.2373,-1.2371,-1.2372,-1.2366,-1.2366,-1.2364,-1.2362,-1.2361,-1.2368,-1.2364,-1.2367,-1.2373,-1.2374,-1.2375,-1.2376,-1.2378,-1.2379,-1.2368,-1.2368,-1.2368,0,-1.2393,-1.2393,-1.2388,-1.2389,-1.2387,-1.2381,-1.2383,-1.2381,-1.2377,-1.2376,-1.2373,-1.2371,-1.2368,-1.2369,-1.2371,-1.237,-1.237,-1.2368,-1.2375,-1.2376,-1.2377,-1.2379,-1.238,-1.2368,-1.2368,-1.2368,-1.2368,0,-1.2401,-1.2401,-1.2403,-1.24,-1.2399,-1.24,-1.2395,-1.2394,-1.2391,-1.2387,-1.2388,-1.2384,-1.2382,-1.2381,-1.2378,-1.2382,-1.238,-1.2376,-1.2372,-1.2378,-1.238,-1.2381,-1.2369,-1.2369,-1.2369,-1.2369,0,0,-1.2416,-1.241,-1.2411,-1.2409,-1.2404,-1.2404,-1.2405,-1.2402,-1.2402,-1.24,-1.24,-1.2398,-1.2394,-1.2393,-1.2389,-1.239,-1.2395,-1.2386,-1.2385,-1.2388,-1.2399,-1.2402,-1.2403,-1.2392,-1.2392,-1.2393,-1.2399,0,-1.2425,-1.2426,-1.2421,-1.2423,-1.2423,-1.2416,-1.2416,-1.2413,-1.241,-1.2409,-1.2405,-1.2404,-1.2399,-1.2398,-1.2399,-1.2395,-1.2397,-1.2394,-1.2392,-1.2392,-1.2394,-1.2404,-1.2408,-1.2414,-1.24,-1.24,-1.24,0,-1.2435,-1.2433,-1.2435,-1.243,-1.243,-1.243,-1.2427,-1.2427,-1.2423,-1.242,-1.2418,-1.2413,-1.2413,-1.2408,-1.2408,-1.2405,-1.2404,-1.2402,-1.2402,-1.2402,-1.2397,-1.2404,-1.2416,-1.2417,-1.2401,-1.2401,-1.2401,0,-1.2446,-1.2443,-1.2444,-1.2443,-1.2437,-1.2438,-1.2435,-1.2431,-1.243,-1.2427,-1.2426,-1.2424,-1.2422,-1.242,-1.2415,-1.2412,-1.2414,-1.2409,-1.2412,-1.2412,-1.2413,-1.2414,-1.2425,-1.2412,-1.2412,-1.2412,-1.2412,0,-1.2456,-1.2457,-1.2449,-1.245,-1.2451,-1.2445,-1.2447,-1.2443,-1.244,-1.2439,-1.2433,-1.2433,-1.2425,-1.2424,-1.2419,-1.2419,-1.2419,-1.2416,-1.2415,-1.2417,-1.2417,-1.2417,-1.2416,-1.2412,-1.2412,-1.2412,-1.2412,0,-1.2469,-1.2463,-1.2464,-1.2458,-1.2456,-1.2458,-1.2453,-1.2453,-1.2449,-1.2448,-1.2448,-1.2441,-1.2439,-1.2433,-1.243,-1.2426,-1.2428,-1.2425,-1.2429,-1.2429,-1.2432,-1.2432,-1.2443,-1.2445,-1.2431,-1.2431,-1.2431,0,-1.2476,-1.2477,-1.2471,-1.247,-1.2468,-1.2467,-1.2465,-1.2459,-1.2458,-1.2453,-1.2454,-1.2451,-1.2449,-1.2446,-1.2441,-1.2438,-1.2435,-1.2439,-1.2435,-1.2436,-1.2435,-1.2435,-1.2435,-1.2441,-1.2441,-1.2441,-1.2441,0,-1.2488,-1.2486,-1.2484,-1.2481,-1.248,-1.2478,-1.2475,-1.2474,-1.2467,-1.2466,-1.2464,-1.2462,-1.2458,-1.2456,-1.2452,-1.2448,-1.2444,-1.2443,-1.2443,-1.2445,-1.2447,-1.2446,-1.2432,-1.2443,-1.2442,-1.2442,-1.2442,-1.2442,-1.2499,-1.2499,-1.2495,-1.2493,-1.249,-1.2488,-1.2487,-1.2483,-1.2481,-1.2478,-1.2474,-1.2472,-1.2467,-1.2462,-1.2459,-1.2457,-1.2454,-1.2455,-1.2455,-1.2456,-1.2457,-1.2447,-1.2456,-1.2456,-1.2456,-1.2456,-1.2456,0,-1.2511,-1.2508,-1.2507,-1.2503,-1.2501,-1.2497,-1.2493,-1.2492,-1.2491,-1.2487,-1.2484,-1.2482,-1.2479,-1.2473,-1.247,-1.2469,-1.2467,-1.2469,-1.2469,-1.2468,-1.2459,-1.2459,-1.2471,-1.2471,-1.2471,-1.2471,-1.2471,-1.2471,-1.2518,-1.2519,-1.2515,-1.2514,-1.251,-1.2509,-1.2507,-1.2504,-1.2501,-1.2498,-1.2496,-1.2492,-1.2487,-1.2484,-1.2481,-1.2479,-1.2478,-1.248,-1.2478,-1.247,-1.2469,-1.2467,-1.2467,-1.248,-1.248,-1.2487,-1.2487,-1.2487]}]]